Time,TemperatureF,DewpointF,PressureIn,WindDirection,WindDirectionDegrees,WindSpeedMPH,WindSpeedGustMPH,Humidity,HourlyPrecipIn,Conditions,Clouds,dailyrainin,SoftwareType,DateUTC
2013-02-23 00:00:00,34.0,34.0,29.41,North,360,0.0,0.0,100,0.00,RA,OVC,0.00,WeatherDisplay:10.37,2013-02-23 05:00:00,
2013-02-23 00:05:00,34.0,34.0,29.40,East,90,0.0,0.0,100,0.00,RA,OVC,0.00,WeatherDisplay:10.37,2013-02-23 05:05:00,
2013-02-23 00:10:00,34.0,34.0,29.40,NNE,22,0.0,0.0,100,0.01,RA,OVC,0.01,WeatherDisplay:10.37,2013-02-23 05:10:00,
2013-02-23 00:15:00,34.0,34.0,29.39,NE,45,0.0,0.0,100,0.01,RA,OVC,0.01,WeatherDisplay:10.37,2013-02-23 05:15:00,
2013-02-23 00:20:00,34.0,34.0,29.39,ENE,67,0.0,0.2,100,0.01,CLR,OVC,0.01,WeatherDisplay:10.37,2013-02-23 05:20:00,
2013-02-23 00:25:00,34.0,34.0,29.38,ENE,67,0.0,0.0,100,0.01,,OVC,0.01,WeatherDisplay:10.37,2013-02-23 05:25:00,
2013-02-23 00:30:00,33.0,33.0,29.38,ENE,67,0.0,0.0,100,0.01,,OVC,0.01,WeatherDisplay:10.37,2013-02-23 05:30:00,
2013-02-23 00:36:00,33.0,33.0,29.38,ENE,67,0.0,0.0,100,0.01,,OVC,0.01,WeatherDisplay:10.37,2013-02-23 05:36:00,
2013-02-23 00:41:00,33.0,33.0,29.38,NE,45,0.0,0.0,100,0.01,,OVC,0.01,WeatherDisplay:10.37,2013-02-23 05:41:00,
2013-02-23 00:46:00,34.0,34.0,29.38,NNE,22,0.0,0.0,100,0.01,,OVC,0.01,WeatherDisplay:10.37,2013-02-23 05:46:00,
2013-02-23 00:51:00,34.0,34.0,29.38,NNE,22,0.0,0.0,100,0.01,,OVC,0.01,WeatherDisplay:10.37,2013-02-23 05:51:00,
2013-02-23 00:56:00,34.0,34.0,29.38,ENE,67,0.0,0.1,100,0.01,,OVC,0.01,WeatherDisplay:10.37,2013-02-23 05:56:00,
2013-02-23 01:01:00,34.0,34.0,29.38,NE,45,0.0,0.0,100,0.01,CLR,OVC,0.01,WeatherDisplay:10.37,2013-02-23 06:01:00,
2013-02-23 01:06:00,34.0,34.0,29.38,ESE,112,0.0,0.0,100,0.01,CLR,OVC,0.01,WeatherDisplay:10.37,2013-02-23 06:06:00,
2013-02-23 01:11:00,34.0,34.0,29.38,ENE,67,0.0,0.0,100,0.00,,OVC,0.01,WeatherDisplay:10.37,2013-02-23 06:11:00,
2013-02-23 01:16:00,34.0,34.0,29.37,ENE,67,0.0,0.0,100,0.00,,OVC,0.01,WeatherDisplay:10.37,2013-02-23 06:16:00,
2013-02-23 01:21:00,34.0,34.0,29.37,NE,45,0.0,0.0,100,0.00,,OVC,0.01,WeatherDisplay:10.37,2013-02-23 06:21:00,
2013-02-23 01:26:00,34.0,34.0,29.37,NE,45,0.0,0.0,100,0.00,,OVC,0.01,WeatherDisplay:10.37,2013-02-23 06:26:00,
2013-02-23 01:31:00,34.0,34.0,29.37,NNE,22,0.0,0.1,100,0.00,,OVC,0.01,WeatherDisplay:10.37,2013-02-23 06:31:00,
2013-02-23 01:36:00,34.0,34.0,29.38,NE,45,0.0,0.0,100,0.00,,OVC,0.01,WeatherDisplay:10.37,2013-02-23 06:36:00,
2013-02-23 01:41:00,34.0,34.0,29.38,NNE,22,0.0,0.0,100,0.00,,OVC,0.01,WeatherDisplay:10.37,2013-02-23 06:41:00,
2013-02-23 01:46:00,34.0,34.0,29.37,NNE,22,0.0,0.0,100,0.00,,OVC,0.01,WeatherDisplay:10.37,2013-02-23 06:46:00,
2013-02-23 01:51:00,34.0,34.0,29.37,NE,45,1.2,0.0,100,0.00,,OVC,0.01,WeatherDisplay:10.37,2013-02-23 06:51:00,
2013-02-23 01:56:00,34.0,34.0,29.38,NNW,337,1.2,1.2,100,0.00,,OVC,0.01,WeatherDisplay:10.37,2013-02-23 06:56:00,
2013-02-23 02:01:00,34.0,34.0,29.38,NW,315,1.0,1.0,100,0.00,,OVC,0.01,WeatherDisplay:10.37,2013-02-23 07:01:00,
2013-02-23 02:06:00,34.0,34.0,29.39,NNW,337,0.0,0.1,100,0.00,,OVC,0.01,WeatherDisplay:10.37,2013-02-23 07:06:00,
2013-02-23 02:11:00,34.0,34.0,29.39,NE,45,0.0,0.0,100,0.00,,OVC,0.01,WeatherDisplay:10.37,2013-02-23 07:11:00,
2013-02-23 02:16:00,34.0,34.0,29.38,NNW,337,0.0,0.0,100,0.00,,OVC,0.01,WeatherDisplay:10.37,2013-02-23 07:16:00,
2013-02-23 02:21:00,34.0,34.0,29.38,North,360,2.3,0.0,100,0.00,,OVC,0.01,WeatherDisplay:10.37,2013-02-23 07:21:00,
2013-02-23 02:26:00,34.0,34.0,29.37,ESE,112,0.0,0.0,100,0.00,,OVC,0.01,WeatherDisplay:10.37,2013-02-23 07:26:00,
2013-02-23 02:31:00,34.0,34.0,29.37,East,90,1.2,1.2,100,0.00,,OVC,0.01,WeatherDisplay:10.37,2013-02-23 07:31:00,
2013-02-23 02:36:00,34.0,34.0,29.36,NNE,22,0.0,0.1,100,0.00,,OVC,0.01,WeatherDisplay:10.37,2013-02-23 07:36:00,
2013-02-23 02:41:00,34.0,34.0,29.36,ENE,67,0.0,0.0,100,0.00,,OVC,0.01,WeatherDisplay:10.37,2013-02-23 07:41:00,
2013-02-23 02:46:00,34.0,34.0,29.35,NE,45,1.2,1.2,100,0.00,,OVC,0.01,WeatherDisplay:10.37,2013-02-23 07:46:00,
2013-02-23 02:51:00,34.0,34.0,29.35,ENE,67,1.2,0.0,100,0.00,,OVC,0.01,WeatherDisplay:10.37,2013-02-23 07:51:00,
2013-02-23 02:56:00,34.0,34.0,29.33,NNE,22,0.0,0.0,100,0.00,,OVC,0.01,WeatherDisplay:10.37,2013-02-23 07:56:00,
2013-02-23 03:01:00,34.0,34.0,29.33,North,360,0.0,0.0,100,0.00,,OVC,0.01,WeatherDisplay:10.37,2013-02-23 08:01:00,
2013-02-23 03:06:00,34.0,34.0,29.35,East,90,1.2,0.0,100,0.00,,OVC,0.01,WeatherDisplay:10.37,2013-02-23 08:06:00,
2013-02-23 03:11:00,34.0,34.0,29.35,NE,45,0.0,0.0,100,0.00,,OVC,0.01,WeatherDisplay:10.37,2013-02-23 08:11:00,
2013-02-23 03:16:00,34.0,34.0,29.32,NNE,22,1.2,1.2,100,0.00,,OVC,0.01,WeatherDisplay:10.37,2013-02-23 08:16:00,
2013-02-23 03:21:00,34.0,34.0,29.32,North,360,1.2,0.0,100,0.00,,OVC,0.01,WeatherDisplay:10.37,2013-02-23 08:21:00,
2013-02-23 03:26:00,34.0,34.0,29.32,North,360,0.0,0.0,100,0.00,,OVC,0.01,WeatherDisplay:10.37,2013-02-23 08:26:00,
2013-02-23 03:31:00,34.0,34.0,29.32,NE,45,0.0,0.0,100,0.00,,OVC,0.01,WeatherDisplay:10.37,2013-02-23 08:31:00,
2013-02-23 03:36:00,34.0,34.0,29.30,NNE,22,0.0,0.0,100,0.00,,OVC,0.01,WeatherDisplay:10.37,2013-02-23 08:36:00,
2013-02-23 03:41:00,34.0,34.0,29.30,North,360,0.0,0.0,100,0.00,,OVC,0.01,WeatherDisplay:10.37,2013-02-23 08:41:00,
2013-02-23 03:46:00,34.0,34.0,29.29,ENE,67,0.0,0.1,100,0.00,,OVC,0.01,WeatherDisplay:10.37,2013-02-23 08:46:00,
2013-02-23 03:51:00,34.0,34.0,29.29,East,90,0.0,0.0,100,0.00,,OVC,0.01,WeatherDisplay:10.37,2013-02-23 08:51:00,
2013-02-23 03:56:00,34.0,34.0,29.28,ESE,112,0.0,0.0,100,0.00,,OVC,0.01,WeatherDisplay:10.37,2013-02-23 08:56:00,
2013-02-23 04:01:00,34.0,34.0,29.28,East,90,0.0,0.0,100,0.00,,OVC,0.01,WeatherDisplay:10.37,2013-02-23 09:01:00,
2013-02-23 04:06:00,34.0,34.0,29.27,East,90,0.0,0.0,100,0.00,,OVC,0.01,WeatherDisplay:10.37,2013-02-23 09:06:00,
2013-02-23 04:11:00,34.0,34.0,29.27,SE,135,0.0,0.0,100,0.00,,OVC,0.01,WeatherDisplay:10.37,2013-02-23 09:11:00,
2013-02-23 04:17:00,34.0,34.0,29.28,SE,135,0.0,0.0,100,0.00,,OVC,0.01,WeatherDisplay:10.37,2013-02-23 09:17:00,
2013-02-23 04:22:00,34.0,34.0,29.28,SE,135,0.0,0.0,100,0.00,,OVC,0.01,WeatherDisplay:10.37,2013-02-23 09:22:00,
2013-02-23 04:27:00,34.0,34.0,29.30,NNW,337,1.2,1.2,100,0.00,,OVC,0.01,WeatherDisplay:10.37,2013-02-23 09:27:00,
2013-02-23 04:32:00,34.0,34.0,29.30,WNW,292,0.0,0.2,100,0.00,,OVC,0.01,WeatherDisplay:10.37,2013-02-23 09:32:00,
2013-02-23 04:37:00,34.0,34.0,29.32,NNW,337,2.3,2.3,100,0.00,,OVC,0.01,WeatherDisplay:10.37,2013-02-23 09:37:00,
2013-02-23 04:42:00,34.0,34.0,29.32,NW,315,0.0,0.0,100,0.00,,OVC,0.01,WeatherDisplay:10.37,2013-02-23 09:42:00,
2013-02-23 04:47:00,34.0,34.0,29.32,NE,45,0.0,0.0,100,0.00,,OVC,0.01,WeatherDisplay:10.37,2013-02-23 09:47:00,
2013-02-23 04:52:00,34.0,34.0,29.32,NNE,22,0.0,0.0,100,0.00,,OVC,0.01,WeatherDisplay:10.37,2013-02-23 09:52:00,
2013-02-23 04:57:00,34.0,34.0,29.31,ESE,112,1.2,1.2,100,0.01,RA,OVC,0.02,WeatherDisplay:10.37,2013-02-23 09:57:00,
2013-02-23 05:02:00,34.0,34.0,29.31,NNE,22,0.0,0.0,100,0.01,RA,OVC,0.02,WeatherDisplay:10.37,2013-02-23 10:02:00,
2013-02-23 05:07:00,34.0,34.0,29.30,NNE,22,0.0,0.0,100,0.01,,OVC,0.02,WeatherDisplay:10.37,2013-02-23 10:07:00,
2013-02-23 05:12:00,34.0,34.0,29.30,NW,315,0.0,0.0,100,0.01,CLR,OVC,0.02,WeatherDisplay:10.37,2013-02-23 10:12:00,
2013-02-23 05:17:00,34.0,34.0,29.30,NNW,337,0.0,0.0,100,0.01,CLR,OVC,0.02,WeatherDisplay:10.37,2013-02-23 10:17:00,
2013-02-23 05:22:00,34.0,34.0,29.30,ENE,67,0.0,0.0,100,0.01,CLR,OVC,0.02,WeatherDisplay:10.37,2013-02-23 10:22:00,
2013-02-23 05:27:00,34.0,34.0,29.30,NNW,337,1.2,1.2,100,0.01,CLR,OVC,0.02,WeatherDisplay:10.37,2013-02-23 10:27:00,
2013-02-23 05:32:00,34.0,34.0,29.30,North,360,0.0,0.0,100,0.01,CLR,OVC,0.02,WeatherDisplay:10.37,2013-02-23 10:32:00,
2013-02-23 05:37:00,34.0,34.0,29.31,NW,315,0.0,0.0,100,0.01,CLR,OVC,0.02,WeatherDisplay:10.37,2013-02-23 10:37:00,
2013-02-23 05:42:00,34.0,34.0,29.31,NW,315,1.2,1.2,100,0.02,RA,OVC,0.03,WeatherDisplay:10.37,2013-02-23 10:42:00,
2013-02-23 05:47:00,34.0,34.0,29.32,NW,315,0.0,0.0,100,0.02,RA,OVC,0.03,WeatherDisplay:10.37,2013-02-23 10:47:00,
2013-02-23 05:52:00,34.0,34.0,29.32,WNW,292,0.0,0.0,100,0.03,RA,OVC,0.04,WeatherDisplay:10.37,2013-02-23 10:52:00,
2013-02-23 05:57:00,34.0,34.0,29.32,NNW,337,1.2,1.2,100,0.02,RA,OVC,0.04,WeatherDisplay:10.37,2013-02-23 10:57:00,
2013-02-23 06:02:00,34.0,34.0,29.32,ENE,67,0.0,0.0,100,0.02,CLR,OVC,0.04,WeatherDisplay:10.37,2013-02-23 11:02:00,
2013-02-23 06:07:00,34.0,34.0,29.31,NNW,337,0.0,0.0,100,0.03,RA,OVC,0.05,WeatherDisplay:10.37,2013-02-23 11:07:00,
2013-02-23 06:12:00,34.0,34.0,29.31,NNE,22,1.0,1.0,100,0.04,RA,OVC,0.06,WeatherDisplay:10.37,2013-02-23 11:12:00,
2013-02-23 06:17:00,34.0,34.0,29.31,NNW,337,0.0,0.0,100,0.04,RA,OVC,0.06,WeatherDisplay:10.37,2013-02-23 11:17:00,
2013-02-23 06:22:00,34.0,33.7,29.31,NE,45,0.0,0.0,99,0.04,,OVC,0.06,WeatherDisplay:10.37,2013-02-23 11:22:00,
2013-02-23 06:27:00,34.0,33.7,29.30,East,90,1.2,1.2,99,0.05,RA,OVC,0.07,WeatherDisplay:10.37,2013-02-23 11:27:00,
2013-02-23 06:32:00,34.0,34.0,29.30,NNW,337,0.0,0.0,100,0.06,RA,OVC,0.08,WeatherDisplay:10.37,2013-02-23 11:32:00,
2013-02-23 06:37:00,34.0,34.0,29.30,NNW,337,0.0,0.0,100,0.06,RA,OVC,0.08,WeatherDisplay:10.37,2013-02-23 11:37:00,
2013-02-23 06:42:00,34.0,34.0,29.30,North,360,0.0,0.0,100,0.06,RA,OVC,0.09,WeatherDisplay:10.37,2013-02-23 11:42:00,
2013-02-23 06:47:00,34.0,34.0,29.30,NNE,22,1.2,1.2,100,0.07,RA,OVC,0.10,WeatherDisplay:10.37,2013-02-23 11:47:00,
2013-02-23 06:52:00,34.0,34.0,29.30,NE,45,0.0,0.0,100,0.06,RA,OVC,0.10,WeatherDisplay:10.37,2013-02-23 11:52:00,
2013-02-23 06:57:00,34.0,34.0,29.30,NNE,22,0.0,0.0,100,0.07,RA,OVC,0.11,WeatherDisplay:10.37,2013-02-23 11:57:00,
2013-02-23 07:02:00,34.0,34.0,29.30,SSE,157,0.0,0.0,100,0.08,RA,OVC,0.12,WeatherDisplay:10.37,2013-02-23 12:02:00,
2013-02-23 07:07:00,34.0,34.0,29.30,North,360,0.0,0.0,100,0.07,RA,OVC,0.12,WeatherDisplay:10.37,2013-02-23 12:07:00,
2013-02-23 07:12:00,34.0,34.0,29.30,NW,315,1.2,0.0,100,0.07,RA,OVC,0.13,WeatherDisplay:10.37,2013-02-23 12:12:00,
2013-02-23 07:17:00,34.0,34.0,29.30,NE,45,0.0,0.0,100,0.07,RA,OVC,0.13,WeatherDisplay:10.37,2013-02-23 12:17:00,
2013-02-23 07:22:00,34.0,34.0,29.30,SE,135,0.0,0.0,100,0.08,RA,OVC,0.14,WeatherDisplay:10.37,2013-02-23 12:22:00,
2013-02-23 07:27:00,34.0,34.0,29.28,ENE,67,0.0,0.0,100,0.07,RA,OVC,0.14,WeatherDisplay:10.37,2013-02-23 12:27:00,
2013-02-23 07:32:00,34.0,33.7,29.28,NNE,22,2.0,2.0,99,0.06,CLR,OVC,0.14,WeatherDisplay:10.37,2013-02-23 12:32:00,
2013-02-23 07:37:00,34.0,34.0,29.26,NNE,22,0.0,0.0,100,0.07,RA,OVC,0.15,WeatherDisplay:10.37,2013-02-23 12:37:00,
2013-02-23 07:42:00,34.0,34.0,29.26,SE,135,1.2,1.2,100,0.06,RA,OVC,0.15,WeatherDisplay:10.37,2013-02-23 12:42:00,
2013-02-23 07:47:00,34.0,33.7,29.25,ENE,67,0.0,0.0,99,0.05,,OVC,0.15,WeatherDisplay:10.37,2013-02-23 12:47:00,
2013-02-23 07:52:00,34.0,33.7,29.25,SSE,157,2.3,2.3,99,0.05,CLR,OVC,0.15,WeatherDisplay:10.37,2013-02-23 12:52:00,
2013-02-23 07:57:00,34.0,33.7,29.24,NE,45,0.0,0.0,99,0.04,CLR,OVC,0.15,WeatherDisplay:10.37,2013-02-23 12:57:00,
2013-02-23 08:02:00,34.0,33.7,29.24,East,90,0.0,0.0,99,0.03,CLR,OVC,0.15,WeatherDisplay:10.37,2013-02-23 13:02:00,
2013-02-23 08:07:00,34.0,33.7,29.25,NNE,22,0.0,0.0,99,0.03,CLR,OVC,0.15,WeatherDisplay:10.37,2013-02-23 13:07:00,
2013-02-23 08:12:00,34.0,33.7,29.25,East,90,0.0,0.0,99,0.03,RA,OVC,0.16,WeatherDisplay:10.37,2013-02-23 13:12:00,
2013-02-23 08:17:00,34.0,33.7,29.25,East,90,0.0,0.0,99,0.03,RA,OVC,0.16,WeatherDisplay:10.37,2013-02-23 13:17:00,
2013-02-23 08:22:00,34.0,33.7,29.25,East,90,0.0,0.0,99,0.02,,OVC,0.16,WeatherDisplay:10.37,2013-02-23 13:22:00,
2013-02-23 08:27:00,34.0,33.7,29.25,East,90,0.0,0.0,99,0.02,CLR,OVC,0.16,WeatherDisplay:10.37,2013-02-23 13:27:00,
2013-02-23 08:32:00,35.0,34.5,29.25,East,90,0.0,0.0,98,0.02,CLR,OVC,0.16,WeatherDisplay:10.37,2013-02-23 13:32:00,
2013-02-23 08:37:00,35.0,34.5,29.25,NW,315,0.0,0.0,98,0.01,CLR,OVC,0.16,WeatherDisplay:10.37,2013-02-23 13:37:00,
2013-02-23 08:42:00,35.0,34.5,29.25,NW,315,0.0,0.0,98,0.01,CLR,OVC,0.16,WeatherDisplay:10.37,2013-02-23 13:42:00,
2013-02-23 08:47:00,35.0,34.5,29.26,NW,315,0.0,0.0,98,0.02,RA,OVC,0.17,WeatherDisplay:10.37,2013-02-23 13:47:00,
2013-02-23 08:52:00,35.0,34.5,29.26,NW,315,0.0,0.0,98,0.02,RA,OVC,0.17,WeatherDisplay:10.37,2013-02-23 13:52:00,
2013-02-23 08:57:00,35.0,34.5,29.27,NW,315,0.0,0.0,98,0.03,RA,OVC,0.18,WeatherDisplay:10.37,2013-02-23 13:57:00,
2013-02-23 09:02:00,35.0,34.5,29.27,North,360,0.0,0.0,98,0.04,RA,OVC,0.19,WeatherDisplay:10.37,2013-02-23 14:02:00,
2013-02-23 09:07:00,35.0,34.5,29.26,North,360,0.0,0.0,98,0.05,RA,OVC,0.20,WeatherDisplay:10.37,2013-02-23 14:07:00,
2013-02-23 09:12:00,35.0,34.5,29.26,NNW,337,1.2,1.2,98,0.05,RA,OVC,0.21,WeatherDisplay:10.37,2013-02-23 14:12:00,
2013-02-23 09:17:00,35.0,34.5,29.26,NNE,22,0.0,0.0,98,0.06,RA,OVC,0.22,WeatherDisplay:10.37,2013-02-23 14:17:00,
2013-02-23 09:22:00,35.0,34.5,29.26,NNE,22,0.0,0.0,98,0.08,RA,OVC,0.24,WeatherDisplay:10.37,2013-02-23 14:22:00,
2013-02-23 09:27:00,35.0,34.5,29.25,North,360,0.0,0.0,98,0.08,RA,OVC,0.24,WeatherDisplay:10.37,2013-02-23 14:27:00,
2013-02-23 09:32:00,35.0,34.5,29.25,ENE,67,0.0,0.0,98,0.09,RA,OVC,0.25,WeatherDisplay:10.37,2013-02-23 14:32:00,
2013-02-23 09:37:00,35.0,34.5,29.25,North,360,0.0,0.0,98,0.10,RA,OVC,0.26,WeatherDisplay:10.37,2013-02-23 14:37:00,
2013-02-23 09:42:00,35.0,34.5,29.25,NNE,22,0.0,0.0,98,0.10,RA,OVC,0.26,WeatherDisplay:10.37,2013-02-23 14:42:00,
2013-02-23 09:47:00,35.0,34.5,29.25,ESE,112,0.0,0.0,98,0.09,CLR,OVC,0.26,WeatherDisplay:10.37,2013-02-23 14:47:00,
2013-02-23 09:52:00,35.0,34.5,29.25,ESE,112,0.0,0.0,98,0.09,CLR,OVC,0.26,WeatherDisplay:10.37,2013-02-23 14:52:00,
2013-02-23 09:57:00,36.0,35.5,29.24,NNE,22,0.0,0.0,98,0.08,CLR,OVC,0.26,WeatherDisplay:10.37,2013-02-23 14:57:00,
2013-02-23 10:02:00,36.0,35.5,29.24,East,90,0.0,0.0,98,0.07,CLR,OVC,0.26,WeatherDisplay:10.37,2013-02-23 15:02:00,
2013-02-23 10:07:00,36.0,35.5,29.24,NNE,22,0.0,0.0,98,0.06,CLR,OVC,0.26,WeatherDisplay:10.37,2013-02-23 15:07:00,
2013-02-23 10:12:00,36.0,35.5,29.24,NNW,337,0.0,0.0,98,0.05,CLR,OVC,0.26,WeatherDisplay:10.37,2013-02-23 15:12:00,
2013-02-23 10:17:00,36.0,35.7,29.26,NW,315,0.0,0.0,99,0.04,CLR,OVC,0.26,WeatherDisplay:10.37,2013-02-23 15:17:00,
2013-02-23 10:22:00,36.0,35.5,29.26,ENE,67,0.0,0.0,98,0.02,CLR,OVC,0.26,WeatherDisplay:10.37,2013-02-23 15:22:00,
2013-02-23 10:27:00,36.0,35.5,29.23,NNE,22,0.0,0.0,98,0.02,CLR,OVC,0.26,WeatherDisplay:10.37,2013-02-23 15:27:00,
2013-02-23 10:32:00,36.0,35.2,29.23,NNE,22,0.0,0.0,97,0.01,CLR,OVC,0.26,WeatherDisplay:10.37,2013-02-23 15:32:00,
2013-02-23 10:37:00,36.0,35.5,29.23,ESE,112,0.0,0.0,98,0.00,CLR,OVC,0.26,WeatherDisplay:10.37,2013-02-23 15:37:00,
2013-02-23 10:42:00,36.0,35.5,29.23,ESE,112,0.0,0.0,98,0.00,CLR,OVC,0.26,WeatherDisplay:10.37,2013-02-23 15:42:00,
2013-02-23 10:47:00,36.0,35.5,29.23,ESE,112,0.0,0.0,98,0.00,CLR,OVC,0.26,WeatherDisplay:10.37,2013-02-23 15:47:00,
2013-02-23 10:52:00,36.0,35.5,29.23,ESE,112,0.0,0.0,98,0.00,CLR,OVC,0.26,WeatherDisplay:10.37,2013-02-23 15:52:00,
2013-02-23 10:57:00,36.0,35.2,29.23,ESE,112,0.0,0.0,97,0.00,CLR,OVC,0.26,WeatherDisplay:10.37,2013-02-23 15:57:00,
2013-02-23 11:02:00,37.0,36.5,29.23,NW,315,0.0,0.0,98,0.00,CLR,OVC,0.26,WeatherDisplay:10.37,2013-02-23 16:02:00,
2013-02-23 11:07:00,37.0,36.5,29.23,NNW,337,1.0,1.0,98,0.00,CLR,OVC,0.26,WeatherDisplay:10.37,2013-02-23 16:07:00,
2013-02-23 11:12:00,37.0,37.0,29.23,West,270,0.0,0.1,100,0.00,CLR,OVC,0.26,WeatherDisplay:10.37,2013-02-23 16:12:00,
2013-02-23 11:17:00,37.0,36.7,29.25,North,360,0.0,0.0,99,0.00,,OVC,0.26,WeatherDisplay:10.37,2013-02-23 16:17:00,
2013-02-23 11:22:00,37.0,36.5,29.25,NNW,337,0.0,0.0,98,0.00,CLR,OVC,0.26,WeatherDisplay:10.37,2013-02-23 16:22:00,
2013-02-23 11:28:00,37.0,36.7,29.23,ENE,67,1.2,1.2,99,0.00,CLR,OVC,0.26,WeatherDisplay:10.37,2013-02-23 16:28:00,
2013-02-23 11:33:00,37.0,37.0,29.23,NNW,337,1.2,1.2,100,0.00,,OVC,0.26,WeatherDisplay:10.37,2013-02-23 16:33:00,
2013-02-23 11:38:00,37.0,37.0,29.23,WNW,292,3.5,3.5,100,0.00,,OVC,0.26,WeatherDisplay:10.37,2013-02-23 16:38:00,
2013-02-23 11:43:00,37.0,37.0,29.23,NW,315,1.0,1.0,100,0.00,,OVC,0.26,WeatherDisplay:10.37,2013-02-23 16:43:00,
2013-02-23 11:48:00,38.0,38.0,29.21,NNW,337,0.0,0.0,100,0.00,,OVC,0.26,WeatherDisplay:10.37,2013-02-23 16:48:00,
2013-02-23 11:53:00,38.0,38.0,29.22,WNW,292,3.0,3.0,100,0.00,,OVC,0.26,WeatherDisplay:10.37,2013-02-23 16:53:00,
2013-02-23 11:58:00,38.0,38.0,29.22,NNW,337,0.0,0.0,100,0.00,,OVC,0.26,WeatherDisplay:10.37,2013-02-23 16:58:00,
2013-02-23 12:03:00,38.0,38.0,29.21,NNW,337,1.2,1.2,100,0.00,,OVC,0.26,WeatherDisplay:10.37,2013-02-23 17:03:00,
2013-02-23 12:08:00,38.0,38.0,29.21,North,360,1.2,1.2,100,0.00,,OVC,0.26,WeatherDisplay:10.37,2013-02-23 17:08:00,
2013-02-23 12:13:00,38.0,38.0,29.21,NNW,337,1.2,1.2,100,0.00,,OVC,0.26,WeatherDisplay:10.37,2013-02-23 17:13:00,
2013-02-23 12:18:00,38.0,38.0,29.21,North,360,0.0,0.0,100,0.00,,OVC,0.26,WeatherDisplay:10.37,2013-02-23 17:18:00,
2013-02-23 12:23:00,39.0,39.0,29.21,NNW,337,0.0,0.0,100,0.00,,OVC,0.26,WeatherDisplay:10.37,2013-02-23 17:23:00,
2013-02-23 12:28:00,39.0,39.0,29.21,North,360,0.0,0.0,100,0.00,,OVC,0.26,WeatherDisplay:10.37,2013-02-23 17:28:00,
2013-02-23 12:33:00,39.0,39.0,29.21,NW,315,3.5,3.5,100,0.00,,OVC,0.26,WeatherDisplay:10.37,2013-02-23 17:33:00,
2013-02-23 12:38:00,39.0,39.0,29.21,NW,315,1.2,1.2,100,0.00,,OVC,0.26,WeatherDisplay:10.37,2013-02-23 17:38:00,
2013-02-23 12:43:00,39.0,39.0,29.21,WNW,292,0.0,0.0,100,0.00,,OVC,0.26,WeatherDisplay:10.37,2013-02-23 17:43:00,
2013-02-23 12:48:00,39.0,39.0,29.21,NW,315,1.2,1.2,100,0.00,,OVC,0.26,WeatherDisplay:10.37,2013-02-23 17:48:00,
2013-02-23 12:53:00,40.0,40.0,29.19,NW,315,1.2,1.2,100,0.00,,OVC,0.26,WeatherDisplay:10.37,2013-02-23 17:53:00,
2013-02-23 12:58:00,40.0,40.0,29.19,NNW,337,0.0,0.0,100,0.00,,OVC,0.26,WeatherDisplay:10.37,2013-02-23 17:58:00,
2013-02-23 13:03:00,40.0,40.0,29.19,ENE,67,0.0,0.0,100,0.00,,OVC,0.26,WeatherDisplay:10.37,2013-02-23 18:03:00,
2013-02-23 13:08:00,40.0,40.0,29.19,NW,315,4.6,4.6,100,0.00,,OVC,0.26,WeatherDisplay:10.37,2013-02-23 18:08:00,
2013-02-23 13:13:00,40.0,40.0,29.21,NNW,337,3.5,3.5,100,0.00,,OVC,0.26,WeatherDisplay:10.37,2013-02-23 18:13:00,
2013-02-23 13:18:00,39.0,39.0,29.21,NNW,337,3.5,3.5,100,0.00,,OVC,0.26,WeatherDisplay:10.37,2013-02-23 18:18:00,
2013-02-23 13:23:00,39.0,39.0,29.20,NW,315,4.6,4.6,100,0.00,,OVC,0.26,WeatherDisplay:10.37,2013-02-23 18:23:00,
2013-02-23 13:28:00,39.0,39.0,29.20,NW,315,1.2,1.2,100,0.00,,OVC,0.26,WeatherDisplay:10.37,2013-02-23 18:28:00,
2013-02-23 13:33:00,40.0,40.0,29.19,West,270,0.0,0.0,100,0.00,,OVC,0.26,WeatherDisplay:10.37,2013-02-23 18:33:00,
2013-02-23 13:38:00,39.0,39.0,29.19,NNW,337,1.2,1.2,100,0.00,,OVC,0.26,WeatherDisplay:10.37,2013-02-23 18:38:00,
2013-02-23 13:43:00,39.0,39.0,29.21,West,270,1.2,1.2,100,0.00,,OVC,0.26,WeatherDisplay:10.37,2013-02-23 18:43:00,
2013-02-23 13:48:00,39.0,39.0,29.21,NW,315,1.2,1.2,100,0.00,,OVC,0.26,WeatherDisplay:10.37,2013-02-23 18:48:00,
2013-02-23 13:53:00,40.0,40.0,29.17,NW,315,0.0,0.0,100,0.00,,OVC,0.26,WeatherDisplay:10.37,2013-02-23 18:53:00,
2013-02-23 13:58:00,40.0,40.0,29.17,North,360,0.0,0.0,100,0.00,,OVC,0.26,WeatherDisplay:10.37,2013-02-23 18:58:00,
2013-02-23 14:03:00,41.0,41.0,29.17,NW,315,2.3,2.3,100,0.00,,OVC,0.26,WeatherDisplay:10.37,2013-02-23 19:03:00,
2013-02-23 14:08:00,40.0,40.0,29.17,WNW,292,0.0,0.0,100,0.00,,OVC,0.26,WeatherDisplay:10.37,2013-02-23 19:08:00,
2013-02-23 14:13:00,41.0,41.0,29.18,NNW,337,1.2,1.2,100,0.00,,OVC,0.26,WeatherDisplay:10.37,2013-02-23 19:13:00,
2013-02-23 14:18:00,41.0,41.0,29.18,NNW,337,1.0,0.0,100,0.00,,OVC,0.26,WeatherDisplay:10.37,2013-02-23 19:18:00,
2013-02-23 14:23:00,41.0,41.0,29.18,NW,315,2.3,2.3,100,0.00,,OVC,0.26,WeatherDisplay:10.37,2013-02-23 19:23:00,
2013-02-23 14:28:00,40.0,40.0,29.18,WNW,292,1.2,1.2,100,0.00,,OVC,0.26,WeatherDisplay:10.37,2013-02-23 19:28:00,
2013-02-23 14:33:00,41.0,41.0,29.17,NW,315,1.2,1.2,100,0.00,,OVC,0.26,WeatherDisplay:10.37,2013-02-23 19:33:00,
2013-02-23 14:38:00,41.0,41.0,29.17,WNW,292,1.0,1.0,100,0.00,,OVC,0.26,WeatherDisplay:10.37,2013-02-23 19:38:00,
2013-02-23 14:43:00,41.0,41.0,29.18,North,360,0.0,0.0,100,0.00,,OVC,0.26,WeatherDisplay:10.37,2013-02-23 19:43:00,
2013-02-23 14:48:00,40.0,40.0,29.18,WNW,292,2.3,2.3,100,0.00,,OVC,0.26,WeatherDisplay:10.37,2013-02-23 19:48:00,
2013-02-23 14:53:00,40.0,40.0,29.17,North,360,1.2,1.2,100,0.00,,OVC,0.26,WeatherDisplay:10.37,2013-02-23 19:53:00,
2013-02-23 14:58:00,40.0,40.0,29.17,NE,45,0.0,0.1,100,0.00,,OVC,0.26,WeatherDisplay:10.37,2013-02-23 19:58:00,
2013-02-23 15:03:00,40.0,40.0,29.17,WNW,292,0.0,0.0,100,0.00,,OVC,0.26,WeatherDisplay:10.37,2013-02-23 20:03:00,
2013-02-23 15:08:00,40.0,40.0,29.17,WNW,292,0.0,0.0,100,0.00,,OVC,0.26,WeatherDisplay:10.37,2013-02-23 20:08:00,
2013-02-23 15:13:00,41.0,41.0,29.15,North,360,0.0,0.0,100,0.00,,OVC,0.26,WeatherDisplay:10.37,2013-02-23 20:13:00,
2013-02-23 15:18:00,41.0,41.0,29.15,North,360,0.0,0.0,100,0.00,,OVC,0.26,WeatherDisplay:10.37,2013-02-23 20:18:00,
2013-02-23 15:23:00,41.0,41.0,29.15,ENE,67,1.2,1.2,100,0.00,,OVC,0.26,WeatherDisplay:10.37,2013-02-23 20:23:00,
2013-02-23 15:28:00,40.0,40.0,29.15,NNE,22,2.3,2.3,100,0.00,,OVC,0.26,WeatherDisplay:10.37,2013-02-23 20:28:00,
2013-02-23 15:33:00,40.0,40.0,29.15,NNW,337,1.2,0.0,100,0.00,,OVC,0.26,WeatherDisplay:10.37,2013-02-23 20:33:00,
2013-02-23 15:38:00,40.0,40.0,29.15,NE,45,0.0,0.0,100,0.00,,OVC,0.26,WeatherDisplay:10.37,2013-02-23 20:38:00,
2013-02-23 15:43:00,41.0,41.0,29.14,WNW,292,0.0,0.0,100,0.00,,OVC,0.26,WeatherDisplay:10.37,2013-02-23 20:43:00,
2013-02-23 15:48:00,41.0,41.0,29.14,East,90,1.2,0.0,100,0.00,,OVC,0.26,WeatherDisplay:10.37,2013-02-23 20:48:00,
2013-02-23 15:53:00,41.0,41.0,29.15,NW,315,0.0,0.0,100,0.00,,OVC,0.26,WeatherDisplay:10.37,2013-02-23 20:53:00,
2013-02-23 15:58:00,41.0,41.0,29.15,WNW,292,0.0,0.1,100,0.00,,OVC,0.26,WeatherDisplay:10.37,2013-02-23 20:58:00,
2013-02-23 16:03:00,41.0,41.0,29.15,NE,45,1.2,0.0,100,0.00,,OVC,0.26,WeatherDisplay:10.37,2013-02-23 21:03:00,
2013-02-23 16:08:00,41.0,41.0,29.15,WNW,292,0.0,0.0,100,0.00,,OVC,0.26,WeatherDisplay:10.37,2013-02-23 21:08:00,
2013-02-23 16:13:00,41.0,41.0,29.15,NW,315,0.0,0.0,100,0.00,,OVC,0.26,WeatherDisplay:10.37,2013-02-23 21:13:00,
2013-02-23 16:18:00,41.0,41.0,29.15,NW,315,0.0,0.0,100,0.00,,OVC,0.26,WeatherDisplay:10.37,2013-02-23 21:18:00,
2013-02-23 16:23:00,41.0,41.0,29.15,NW,315,1.2,1.2,100,0.00,,OVC,0.26,WeatherDisplay:10.37,2013-02-23 21:23:00,
2013-02-23 16:28:00,41.0,41.0,29.15,WNW,292,0.0,0.0,100,0.00,,OVC,0.26,WeatherDisplay:10.37,2013-02-23 21:28:00,
2013-02-23 16:33:00,41.0,41.0,29.14,NNW,337,0.0,0.0,100,0.00,,OVC,0.26,WeatherDisplay:10.37,2013-02-23 21:33:00,
2013-02-23 16:38:00,41.0,41.0,29.14,NW,315,1.2,1.2,100,0.00,,OVC,0.26,WeatherDisplay:10.37,2013-02-23 21:38:00,
2013-02-23 16:43:00,41.0,41.0,29.14,NW,315,1.2,1.2,100,0.00,,OVC,0.26,WeatherDisplay:10.37,2013-02-23 21:43:00,
2013-02-23 16:48:00,41.0,41.0,29.14,NW,315,0.0,0.0,100,0.00,,OVC,0.26,WeatherDisplay:10.37,2013-02-23 21:48:00,
2013-02-23 16:53:00,41.0,41.0,29.15,West,270,0.0,0.0,100,0.00,,OVC,0.26,WeatherDisplay:10.37,2013-02-23 21:53:00,
2013-02-23 16:58:00,41.0,41.0,29.15,WSW,247,1.2,1.2,100,0.00,,OVC,0.26,WeatherDisplay:10.37,2013-02-23 21:58:00,
2013-02-23 17:03:00,41.0,41.0,29.15,West,270,0.0,0.0,100,0.00,,OVC,0.26,WeatherDisplay:10.37,2013-02-23 22:03:00,
2013-02-23 17:08:00,41.0,41.0,29.15,West,270,0.0,0.0,100,0.00,,OVC,0.26,WeatherDisplay:10.37,2013-02-23 22:08:00,
2013-02-23 17:13:00,41.0,41.0,29.15,NW,315,1.2,1.2,100,0.00,,OVC,0.26,WeatherDisplay:10.37,2013-02-23 22:13:00,
2013-02-23 17:18:00,41.0,41.0,29.15,NW,315,0.0,0.0,100,0.00,,OVC,0.26,WeatherDisplay:10.37,2013-02-23 22:18:00,
2013-02-23 17:23:00,41.0,41.0,29.14,West,270,0.0,0.0,100,0.00,,OVC,0.26,WeatherDisplay:10.37,2013-02-23 22:23:00,
2013-02-23 17:28:00,41.0,41.0,29.14,West,270,0.0,0.0,100,0.00,,OVC,0.26,WeatherDisplay:10.37,2013-02-23 22:28:00,
2013-02-23 17:33:00,41.0,41.0,29.14,WNW,292,0.0,0.0,100,0.00,,OVC,0.26,WeatherDisplay:10.37,2013-02-23 22:33:00,
2013-02-23 17:38:00,41.0,41.0,29.14,WNW,292,0.0,0.0,100,0.00,,OVC,0.26,WeatherDisplay:10.37,2013-02-23 22:38:00,
2013-02-23 17:43:00,41.0,41.0,29.13,WNW,292,0.0,0.0,100,0.00,,OVC,0.26,WeatherDisplay:10.37,2013-02-23 22:43:00,
2013-02-23 17:48:00,41.0,41.0,29.13,West,270,0.0,0.1,100,0.00,,OVC,0.26,WeatherDisplay:10.37,2013-02-23 22:48:00,
2013-02-23 17:53:00,41.0,41.0,29.13,West,270,0.0,0.0,100,0.00,,OVC,0.26,WeatherDisplay:10.37,2013-02-23 22:53:00,
2013-02-23 17:58:00,41.0,41.0,29.13,West,270,0.0,0.0,100,0.00,,OVC,0.26,WeatherDisplay:10.37,2013-02-23 22:58:00,
2013-02-23 18:03:00,41.0,41.0,29.12,West,270,0.0,0.0,100,0.00,,OVC,0.26,WeatherDisplay:10.37,2013-02-23 23:03:00,
2013-02-23 18:08:00,41.0,41.0,29.12,West,270,0.0,0.0,100,0.00,,OVC,0.26,WeatherDisplay:10.37,2013-02-23 23:08:00,
2013-02-23 18:13:00,41.0,41.0,29.12,West,270,0.0,0.0,100,0.00,,OVC,0.26,WeatherDisplay:10.37,2013-02-23 23:13:00,
2013-02-23 18:18:00,41.0,41.0,29.12,West,270,0.0,0.0,100,0.00,,OVC,0.26,WeatherDisplay:10.37,2013-02-23 23:18:00,
2013-02-23 18:23:00,41.0,41.0,29.12,West,270,0.0,0.0,100,0.00,,OVC,0.26,WeatherDisplay:10.37,2013-02-23 23:23:00,
2013-02-23 18:28:00,41.0,41.0,29.12,NW,315,0.0,0.0,100,0.00,,OVC,0.26,WeatherDisplay:10.37,2013-02-23 23:28:00,
2013-02-23 18:33:00,41.0,41.0,29.11,NW,315,0.0,0.0,100,0.00,,OVC,0.26,WeatherDisplay:10.37,2013-02-23 23:33:00,
2013-02-23 18:38:00,41.0,41.0,29.11,NW,315,0.0,0.0,100,0.00,,OVC,0.26,WeatherDisplay:10.37,2013-02-23 23:38:00,
2013-02-23 18:43:00,41.0,41.0,29.11,NW,315,0.0,0.0,100,0.00,,OVC,0.26,WeatherDisplay:10.37,2013-02-23 23:43:00,
2013-02-23 18:48:00,41.0,41.0,29.11,NW,315,0.0,0.0,100,0.00,,OVC,0.26,WeatherDisplay:10.37,2013-02-23 23:48:00,
2013-02-23 18:53:00,41.0,41.0,29.11,NW,315,0.0,0.0,100,0.00,,OVC,0.26,WeatherDisplay:10.37,2013-02-23 23:53:00,
2013-02-23 18:58:00,41.0,41.0,29.11,NW,315,0.0,0.0,100,0.00,,OVC,0.26,WeatherDisplay:10.37,2013-02-23 23:58:00,
2013-02-23 19:03:00,41.0,41.0,29.11,NW,315,0.0,0.0,100,0.00,,OVC,0.26,WeatherDisplay:10.37,2013-02-24 00:03:00,
2013-02-23 19:09:00,41.0,41.0,29.11,NW,315,0.0,0.0,100,0.00,,OVC,0.26,WeatherDisplay:10.37,2013-02-24 00:09:00,
2013-02-23 19:14:00,41.0,41.0,29.11,NW,315,0.0,0.0,100,0.00,,OVC,0.26,WeatherDisplay:10.37,2013-02-24 00:14:00,
2013-02-23 19:19:00,41.0,41.0,29.11,NW,315,0.0,0.0,100,0.00,,OVC,0.26,WeatherDisplay:10.37,2013-02-24 00:19:00,
2013-02-23 19:24:00,41.0,41.0,29.11,WNW,292,1.2,1.2,100,0.00,,OVC,0.26,WeatherDisplay:10.37,2013-02-24 00:24:00,
2013-02-23 19:29:00,41.0,41.0,29.11,NW,315,0.0,0.0,100,0.00,,OVC,0.26,WeatherDisplay:10.37,2013-02-24 00:29:00,
2013-02-23 19:34:00,41.0,41.0,29.11,NW,315,0.0,0.0,100,0.00,,OVC,0.26,WeatherDisplay:10.37,2013-02-24 00:34:00,
2013-02-23 19:39:00,41.0,41.0,29.11,NW,315,0.0,0.0,100,0.00,,OVC,0.26,WeatherDisplay:10.37,2013-02-24 00:39:00,
2013-02-23 19:44:00,41.0,41.0,29.10,NW,315,0.0,0.0,100,0.00,,OVC,0.26,WeatherDisplay:10.37,2013-02-24 00:44:00,
2013-02-23 19:49:00,41.0,41.0,29.10,NW,315,0.0,0.0,100,0.00,,OVC,0.26,WeatherDisplay:10.37,2013-02-24 00:49:00,
2013-02-23 19:54:00,41.0,41.0,29.11,NW,315,0.0,0.0,100,0.00,,OVC,0.26,WeatherDisplay:10.37,2013-02-24 00:54:00,
2013-02-23 19:59:00,41.0,41.0,29.11,NW,315,0.0,0.0,100,0.00,,OVC,0.26,WeatherDisplay:10.37,2013-02-24 00:59:00,
2013-02-23 20:04:00,41.0,41.0,29.11,NW,315,0.0,0.0,100,0.00,,OVC,0.26,WeatherDisplay:10.37,2013-02-24 01:04:00,
2013-02-23 20:09:00,41.0,41.0,29.11,NW,315,0.0,0.0,100,0.00,,OVC,0.26,WeatherDisplay:10.37,2013-02-24 01:09:00,
2013-02-23 20:14:00,41.0,41.0,29.12,NW,315,0.0,0.0,100,0.00,,OVC,0.26,WeatherDisplay:10.37,2013-02-24 01:14:00,
2013-02-23 20:19:00,41.0,41.0,29.12,NW,315,0.0,0.0,100,0.00,,OVC,0.26,WeatherDisplay:10.37,2013-02-24 01:19:00,
2013-02-23 20:24:00,41.0,41.0,29.11,NW,315,0.0,0.0,100,0.00,,OVC,0.26,WeatherDisplay:10.37,2013-02-24 01:24:00,
2013-02-23 20:29:00,41.0,41.0,29.11,NW,315,0.0,0.0,100,0.00,,OVC,0.26,WeatherDisplay:10.37,2013-02-24 01:29:00,
2013-02-23 20:34:00,40.0,40.0,29.11,NW,315,0.0,0.0,100,0.00,,OVC,0.26,WeatherDisplay:10.37,2013-02-24 01:34:00,
2013-02-23 20:39:00,40.0,40.0,29.11,NW,315,0.0,0.0,100,0.00,,OVC,0.26,WeatherDisplay:10.37,2013-02-24 01:39:00,
2013-02-23 20:44:00,40.0,40.0,29.12,West,270,0.0,0.0,100,0.00,,OVC,0.26,WeatherDisplay:10.37,2013-02-24 01:44:00,
2013-02-23 20:49:00,40.0,40.0,29.12,West,270,0.0,0.0,100,0.00,,OVC,0.26,WeatherDisplay:10.37,2013-02-24 01:49:00,
2013-02-23 20:54:00,40.0,40.0,29.12,West,270,0.0,0.0,100,0.00,,OVC,0.26,WeatherDisplay:10.37,2013-02-24 01:54:00,
2013-02-23 20:59:00,40.0,40.0,29.12,West,270,0.0,0.0,100,0.00,,OVC,0.26,WeatherDisplay:10.37,2013-02-24 01:59:00,
2013-02-23 21:04:00,40.0,40.0,29.11,SSW,202,0.0,0.0,100,0.00,,OVC,0.26,WeatherDisplay:10.37,2013-02-24 02:04:00,
2013-02-23 21:09:00,40.0,40.0,29.11,SSW,202,0.0,0.0,100,0.00,,OVC,0.26,WeatherDisplay:10.37,2013-02-24 02:09:00,
2013-02-23 21:14:00,40.0,40.0,29.11,SSW,202,0.0,0.0,100,0.00,,OVC,0.26,WeatherDisplay:10.37,2013-02-24 02:14:00,
2013-02-23 21:19:00,40.0,40.0,29.11,SSW,202,0.0,0.0,100,0.00,,OVC,0.26,WeatherDisplay:10.37,2013-02-24 02:19:00,
2013-02-23 21:24:00,40.0,40.0,29.12,SSW,202,0.0,0.0,100,0.00,,OVC,0.26,WeatherDisplay:10.37,2013-02-24 02:24:00,
2013-02-23 21:29:00,40.0,40.0,29.12,SSW,202,0.0,0.0,100,0.00,,OVC,0.26,WeatherDisplay:10.37,2013-02-24 02:29:00,
2013-02-23 21:34:00,40.0,40.0,29.11,SSW,202,0.0,0.0,100,0.00,,OVC,0.26,WeatherDisplay:10.37,2013-02-24 02:34:00,
2013-02-23 21:39:00,40.0,40.0,29.11,WNW,292,0.0,0.0,100,0.00,,OVC,0.26,WeatherDisplay:10.37,2013-02-24 02:39:00,
2013-02-23 21:44:00,40.0,40.0,29.12,WNW,292,0.0,0.0,100,0.00,,OVC,0.26,WeatherDisplay:10.37,2013-02-24 02:44:00,
2013-02-23 21:49:00,40.0,40.0,29.12,SW,225,0.0,0.0,100,0.00,,OVC,0.26,WeatherDisplay:10.37,2013-02-24 02:49:00,
2013-02-23 21:54:00,40.0,40.0,29.12,SW,225,0.0,0.0,100,0.00,,OVC,0.26,WeatherDisplay:10.37,2013-02-24 02:54:00,
2013-02-23 21:59:00,40.0,40.0,29.12,SW,225,0.0,0.0,100,0.00,,OVC,0.26,WeatherDisplay:10.37,2013-02-24 02:59:00,
2013-02-23 22:04:00,40.0,40.0,29.11,South,180,0.0,0.0,100,0.00,,OVC,0.26,WeatherDisplay:10.37,2013-02-24 03:04:00,
2013-02-23 22:09:00,40.0,40.0,29.11,SW,225,0.0,0.0,100,0.00,,OVC,0.26,WeatherDisplay:10.37,2013-02-24 03:09:00,
2013-02-23 22:14:00,40.0,40.0,29.11,SSW,202,0.0,0.0,100,0.00,,OVC,0.26,WeatherDisplay:10.37,2013-02-24 03:14:00,
2013-02-23 22:19:00,40.0,40.0,29.11,SSW,202,0.0,0.0,100,0.00,,OVC,0.26,WeatherDisplay:10.37,2013-02-24 03:19:00,
2013-02-23 22:24:00,40.0,40.0,29.11,South,180,1.0,0.0,100,0.00,,OVC,0.26,WeatherDisplay:10.37,2013-02-24 03:24:00,
2013-02-23 22:29:00,40.0,40.0,29.11,SSW,202,1.2,0.0,100,0.00,,OVC,0.26,WeatherDisplay:10.37,2013-02-24 03:29:00,
2013-02-23 22:34:00,41.0,41.0,29.10,NNE,22,0.0,0.0,100,0.00,,OVC,0.26,WeatherDisplay:10.37,2013-02-24 03:34:00,
2013-02-23 22:39:00,41.0,41.0,29.10,ESE,112,0.0,0.0,100,0.00,,OVC,0.26,WeatherDisplay:10.37,2013-02-24 03:39:00,
2013-02-23 22:44:00,40.0,40.0,29.08,SSW,202,0.0,0.0,100,0.00,,OVC,0.26,WeatherDisplay:10.37,2013-02-24 03:44:00,
2013-02-23 22:49:00,40.0,40.0,29.08,SSW,202,0.0,0.0,100,0.00,,OVC,0.26,WeatherDisplay:10.37,2013-02-24 03:49:00,
2013-02-23 22:54:00,40.0,40.0,29.08,SSW,202,0.0,0.0,100,0.00,,OVC,0.26,WeatherDisplay:10.37,2013-02-24 03:54:00,
2013-02-23 22:59:00,40.0,40.0,29.08,South,180,0.0,0.0,100,0.00,,OVC,0.26,WeatherDisplay:10.37,2013-02-24 03:59:00,
2013-02-23 23:04:00,40.0,40.0,29.09,NW,315,0.0,0.0,100,0.00,,OVC,0.26,WeatherDisplay:10.37,2013-02-24 04:04:00,
2013-02-23 23:09:00,40.0,40.0,29.09,WNW,292,0.0,0.0,100,0.00,,OVC,0.26,WeatherDisplay:10.37,2013-02-24 04:09:00,
2013-02-23 23:14:00,40.0,40.0,29.10,WNW,292,0.0,0.1,100,0.00,,OVC,0.26,WeatherDisplay:10.37,2013-02-24 04:14:00,
2013-02-23 23:19:00,40.0,40.0,29.10,NW,315,1.2,1.2,100,0.00,,OVC,0.26,WeatherDisplay:10.37,2013-02-24 04:19:00,
2013-02-23 23:24:00,41.0,41.0,29.11,NW,315,2.3,2.3,100,0.00,,OVC,0.26,WeatherDisplay:10.37,2013-02-24 04:24:00,
2013-02-23 23:29:00,41.0,41.0,29.11,NW,315,1.2,1.2,100,0.00,,OVC,0.26,WeatherDisplay:10.37,2013-02-24 04:29:00,
2013-02-23 23:34:00,41.0,41.0,29.11,West,270,0.0,0.0,100,0.00,,OVC,0.26,WeatherDisplay:10.37,2013-02-24 04:34:00,
2013-02-23 23:39:00,41.0,41.0,29.11,West,270,0.0,0.0,100,0.00,,OVC,0.26,WeatherDisplay:10.37,2013-02-24 04:39:00,
2013-02-23 23:44:00,41.0,41.0,29.11,WSW,247,0.0,0.0,100,0.00,,OVC,0.26,WeatherDisplay:10.37,2013-02-24 04:44:00,
2013-02-23 23:49:00,41.0,41.0,29.11,WSW,247,0.0,0.0,100,0.00,,OVC,0.26,WeatherDisplay:10.37,2013-02-24 04:49:00,
2013-02-23 23:54:00,41.0,41.0,29.09,WSW,247,0.0,0.0,100,0.00,,OVC,0.26,WeatherDisplay:10.37,2013-02-24 04:54:00,
2013-02-23 23:59:00,41.0,41.0,29.09,WSW,247,0.0,0.0,100,0.00,,OVC,0.26,WeatherDisplay:10.37,2013-02-24 04:59:00,